TimePST,TemperatureF,Dew PointF,Humidity,Sea Level PressureIn,VisibilityMPH,Wind Direction,Wind SpeedMPH,Gust SpeedMPH,PrecipitationIn,Events,Conditions,WindDirDegrees,DateUTC
12:53 AM,36.0,35.1,97,30.18,5.0,NNE,3.5,-,N/A,,Overcast,20,2012-11-14 08:53:00
1:53 AM,37.0,35.1,93,30.17,3.0,Calm,Calm,-,N/A,,Mostly Cloudy,0,2012-11-14 09:53:00
2:20 AM,35.6,35.6,100,30.18,4.0,North,4.6,-,N/A,,Overcast,360,2012-11-14 10:20:00
2:28 AM,37.4,35.6,93,30.18,1.8,North,4.6,-,N/A,,Overcast,360,2012-11-14 10:28:00
2:42 AM,35.6,35.6,100,30.19,3.0,North,6.9,-,N/A,,Overcast,360,2012-11-14 10:42:00
2:51 AM,37.4,35.6,93,30.19,3.0,North,6.9,-,N/A,,Overcast,360,2012-11-14 10:51:00
2:53 AM,37.0,36.0,96,30.18,3.0,North,5.8,-,N/A,,Overcast,360,2012-11-14 10:53:00
2:56 AM,37.4,35.6,93,30.18,1.8,North,5.8,-,N/A,,Overcast,350,2012-11-14 10:56:00
3:29 AM,35.6,35.6,100,30.18,3.0,North,4.6,-,N/A,,Overcast,10,2012-11-14 11:29:00
3:50 AM,35.6,35.6,100,30.18,1.8,Calm,Calm,-,N/A,,Overcast,0,2012-11-14 11:50:00
4:01 AM,35.6,35.6,100,30.18,0.5,North,4.6,-,N/A,Fog,Fog,350,2012-11-14 12:01:00
4:03 AM,35.6,35.6,100,30.18,0.2,North,3.5,-,N/A,Fog,Fog,360,2012-11-14 12:03:00
4:34 AM,35.6,35.6,100,30.19,0.2,North,9.2,-,N/A,Fog,Fog,360,2012-11-14 12:34:00
4:53 AM,35.1,35.1,100,30.19,0.2,North,3.5,-,N/A,Fog,Fog,10,2012-11-14 12:53:00
5:22 AM,35.6,35.6,100,30.19,0.2,North,3.5,-,N/A,Fog,Fog,360,2012-11-14 13:22:00
5:49 AM,35.6,35.6,100,30.19,0.5,NNE,4.6,-,N/A,Fog,Fog,20,2012-11-14 13:49:00
5:53 AM,36.0,35.1,97,30.20,0.5,North,5.8,-,N/A,Fog,Fog,10,2012-11-14 13:53:00
6:01 AM,35.6,35.6,100,30.19,0.2,North,8.1,-,N/A,Fog,Fog,360,2012-11-14 14:01:00
6:03 AM,35.6,35.6,100,30.19,0.2,North,8.1,-,N/A,Fog,Fog,360,2012-11-14 14:03:00
6:53 AM,35.1,34.0,96,30.22,0.2,North,6.9,-,N/A,Fog,Fog,360,2012-11-14 14:53:00
7:53 AM,34.0,34.0,100,30.23,0.1,NNE,4.6,-,N/A,Fog,Fog,30,2012-11-14 15:53:00
8:53 AM,35.1,35.1,100,30.24,0.1,North,5.8,-,N/A,Fog,Fog,350,2012-11-14 16:53:00
9:17 AM,35.6,35.6,100,30.22,0.2,North,5.8,-,N/A,Fog,Fog,360,2012-11-14 17:17:00
9:53 AM,37.0,36.0,96,30.24,0.2,North,5.8,-,N/A,Fog,Fog,360,2012-11-14 17:53:00
10:05 AM,37.4,37.4,100,30.23,0.5,North,3.5,-,N/A,Fog,Fog,350,2012-11-14 18:05:00
10:29 AM,37.4,37.4,100,30.23,1.0,North,3.5,-,N/A,,Overcast,360,2012-11-14 18:29:00
10:33 AM,37.4,37.4,100,30.24,2.0,North,4.6,-,N/A,,Overcast,10,2012-11-14 18:33:00
10:53 AM,37.9,37.0,97,30.25,2.0,NNE,3.5,-,N/A,,Overcast,30,2012-11-14 18:53:00
11:47 AM,39.2,37.4,93,30.22,3.0,SSW,3.5,-,N/A,,Overcast,210,2012-11-14 19:47:00
11:53 AM,39.0,37.9,96,30.24,3.0,Calm,Calm,-,N/A,,Overcast,0,2012-11-14 19:53:00
12:53 PM,42.1,37.9,85,30.22,6.0,Variable,3.5,-,N/A,,Mostly Cloudy,0,2012-11-14 20:53:00
1:09 PM,44.6,39.2,81,30.20,7.0,Calm,Calm,-,N/A,,Mostly Cloudy,0,2012-11-14 21:09:00
1:17 PM,42.8,39.2,87,30.20,10.0,Calm,Calm,-,N/A,,Scattered Clouds,0,2012-11-14 21:17:00
1:53 PM,45.0,39.0,80,30.19,10.0,Calm,Calm,-,N/A,,Scattered Clouds,0,2012-11-14 21:53:00
2:53 PM,46.9,37.9,71,30.17,10.0,Calm,Calm,-,N/A,,Scattered Clouds,0,2012-11-14 22:53:00
3:53 PM,46.0,37.9,73,30.18,10.0,West,3.5,-,N/A,,Scattered Clouds,280,2012-11-14 23:53:00
4:53 PM,41.0,36.0,82,30.18,10.0,North,5.8,-,N/A,,Partly Cloudy,10,2012-11-15 00:53:00
5:53 PM,37.0,34.0,89,30.19,10.0,North,3.5,-,N/A,,Partly Cloudy,350,2012-11-15 01:53:00
6:53 PM,33.1,30.9,92,30.21,10.0,Calm,Calm,-,N/A,,Partly Cloudy,0,2012-11-15 02:53:00
7:53 PM,30.0,28.9,96,30.21,10.0,Calm,Calm,-,N/A,,Partly Cloudy,0,2012-11-15 03:53:00
8:16 PM,30.2,28.4,93,30.17,6.0,Calm,Calm,-,N/A,,Partly Cloudy,0,2012-11-15 04:16:00
8:53 PM,28.9,28.0,96,30.22,7.0,Calm,Calm,-,N/A,,Partly Cloudy,0,2012-11-15 04:53:00
9:53 PM,30.0,28.0,92,30.21,10.0,NE,4.6,-,N/A,,Clear,50,2012-11-15 05:53:00
10:53 PM,30.0,28.9,96,30.20,3.0,Calm,Calm,-,N/A,,Clear,0,2012-11-15 06:53:00
11:16 PM,26.6,26.6,100,30.16,1.8,Calm,Calm,-,N/A,,Clear,0,2012-11-15 07:16:00
11:22 PM,26.6,24.8,93,30.16,0.2,Calm,Calm,-,N/A,Fog,Light Freezing Fog,0,2012-11-15 07:22:00
11:28 PM,26.6,24.8,93,30.16,0.5,Calm,Calm,-,N/A,Fog,Light Freezing Fog,0,2012-11-15 07:28:00
11:34 PM,26.6,24.8,93,30.16,1.0,Calm,Calm,-,N/A,,Mist,0,2012-11-15 07:34:00
11:36 PM,26.6,24.8,93,30.16,0.8,Calm,Calm,-,N/A,,Mist,0,2012-11-15 07:36:00
11:48 PM,26.6,24.8,93,30.16,0.2,Calm,Calm,-,N/A,Fog,Light Freezing Fog,0,2012-11-15 07:48:00
11:53 PM,26.1,25.0,96,30.21,0.2,Calm,Calm,-,N/A,Fog,Light Freezing Fog,0,2012-11-15 07:53:00